Mariq — SVA2152 — position and weather

sailwx.info

Track history (hours):
 
Tides and Currents Weather Stations Pressure Air Temp Water Temp Dewpoint Dewpoint Depression Visibility Wind Speed Wind Dir Waves Ship Positions

Mariq

Last reported at 2014-Oct-30 08:28 UTC. Time now 2014-Nov-25 23:12 UTC.
Position N 37°39' E 024°05'.
Warning: this ship's position is 26 days out of date.

Length 57 m.

Type: Tanker. MMSI: 239758424.

Date/timePositionNaut miles runAvg speedWind from/ knotsBaromVisibWave heightAir tempDewpointWater temp
2014-Oct-30 08:28N 37°39' E 024°05'9 9.9
2014-Oct-30 07:33N 37°31' E 024°10'10 9.8
2014-Oct-30 06:33N 37°22' E 024°17'10 9.6
2014-Oct-30 05:33N 37°16' E 024°25'10 9.9
2014-Oct-30 04:33N 37°10' E 024°36'10 9.7
2014-Oct-30 03:33N 37°03' E 024°45'10 9.5
2014-Oct-30 02:33N 36°57' E 024°54'1010.0
2014-Oct-30 01:32N 36°55' E 025°06'1010.3
2014-Oct-30 00:33N 36°54' E 025°19'1010.3
2014-Oct-29 23:33N 36°54' E 025°32'10 9.7
2014-Oct-29 22:33N 36°49' E 025°42'8 3.6
2014-Oct-29 20:27N 36°50' E 025°52'0 0.0
2014-Oct-29 19:31N 36°50' E 025°52'0 0.0
2014-Oct-29 18:33N 36°50' E 025°52'0 0.0
2014-Oct-29 09:33N 36°50' E 025°52'6 6.0
2014-Oct-29 08:33N 36°54' E 025°57'1 1.5
2014-Oct-29 07:33N 36°54' E 025°59'0 0.0
2014-Oct-29 06:33N 36°54' E 025°59'0 0.0
2014-Oct-29 05:33N 36°54' E 025°59'0 0.0
2014-Oct-29 04:33N 36°54' E 025°59'0 0.0
2014-Oct-29 03:33N 36°54' E 025°59'0 0.0
2014-Oct-29 02:33N 36°54' E 025°59'0 0.0
2014-Oct-29 01:33N 36°54' E 025°59'0 0.0
2014-Oct-29 00:32N 36°54' E 025°59'2 2.0
2014-Oct-28 23:33N 36°56' E 025°57'8 8.3
2014-Oct-28 22:33N 36°54' E 026°07'9 9.3
2014-Oct-28 21:33N 36°50' E 026°18'9 9.1
2014-Oct-28 20:33N 36°47' E 026°29'32 1.1
2014-Oct-27 14:33N 37°18' E 026°38'  
2014-Oct-22 11:13N 36°37' E 026°43'26 9.5
2014-Oct-22 08:30N 36°42' E 026°11'910.0
2014-Oct-22 07:33N 36°44' E 025°59'1010.0
2014-Oct-22 06:33N 36°45' E 025°47'10 9.8
2014-Oct-22 05:33N 36°51' E 025°37'5 4.9
2014-Oct-22 04:33N 36°56' E 025°36'0 0.0
2014-Oct-22 03:33N 36°56' E 025°36'0 0.0
2014-Oct-22 02:33N 36°56' E 025°36'0 0.0
2014-Oct-22 01:33N 36°56' E 025°36'0 0.0
2014-Oct-22 00:33N 36°56' E 025°36'0 0.0
2014-Oct-21 23:33N 36°56' E 025°36'0 0.0
2014-Oct-21 22:33N 36°56' E 025°36'0 0.0
2014-Oct-21 21:33N 36°56' E 025°36'0 0.0
2014-Oct-21 20:33N 36°56' E 025°36'0 0.0
2014-Oct-21 19:33N 36°56' E 025°36'0 0.0
2014-Oct-21 18:33N 36°56' E 025°36'0 0.0
2014-Oct-21 17:33N 36°56' E 025°36'0 0.0
2014-Oct-21 16:33N 36°56' E 025°36'0 0.0
2014-Oct-21 15:33N 36°56' E 025°36'0 0.0
2014-Oct-21 14:33N 36°56' E 025°36'0 0.0
2014-Oct-21 13:33N 36°56' E 025°36'0 0.0
2014-Oct-21 12:33N 36°56' E 025°36'0 0.0
2014-Oct-21 11:33N 36°56' E 025°36'0 0.0
2014-Oct-21 10:33N 36°56' E 025°36'0 0.0
2014-Oct-21 09:33N 36°56' E 025°36'3 3.4
2014-Oct-21 08:33N 36°54' E 025°33'9 9.4
2014-Oct-21 07:33N 36°54' E 025°21'9 9.3
2014-Oct-21 06:33N 36°55' E 025°09'10 9.6
2014-Oct-21 05:33N 36°56' E 024°57'10 9.6
2014-Oct-21 04:33N 37°02' E 024°48'9 9.4
2014-Oct-21 03:33N 37°08' E 024°39'10 9.6
2014-Oct-21 02:33N 37°14' E 024°29'10 9.7
2014-Oct-21 01:33N 37°20' E 024°19'10 9.5
2014-Oct-21 00:31N 37°28' E 024°13'7 0.6
2014-Oct-20 13:33N 37°33' E 024°08'10 9.8
2014-Oct-20 12:33N 37°24' E 024°13'9 9.1
2014-Oct-20 11:33N 37°16' E 024°18'9 8.3
2014-Oct-20 10:31N 37°08' E 024°23'8 8.7
2014-Oct-20 09:33N 37°01' E 024°29'8 8.1
2014-Oct-20 08:33N 36°54' E 024°34'  
Track history (hours):
 
Tides and Currents Weather Stations Pressure Air Temp Water Temp Dewpoint Dewpoint Depression Visibility Wind Speed Wind Dir Waves Ship Positions

Mariq

Last reported at 2014-Oct-30 08:28 UTC. Time now 2014-Nov-25 23:12 UTC.
Position N 37°39' E 024°05'.
Warning: this ship's position is 26 days out of date.

Length 57 m.

Type: Tanker. MMSI: 239758424.

Date/timePositionNaut miles runAvg speedWind from/ knotsBaromVisibWave heightAir tempDewpointWater temp
2014-Oct-30 08:28N 37°39' E 024°05'9 9.9
2014-Oct-30 07:33N 37°31' E 024°10'10 9.8
2014-Oct-30 06:33N 37°22' E 024°17'10 9.6
2014-Oct-30 05:33N 37°16' E 024°25'10 9.9
2014-Oct-30 04:33N 37°10' E 024°36'10 9.7
2014-Oct-30 03:33N 37°03' E 024°45'10 9.5
2014-Oct-30 02:33N 36°57' E 024°54'1010.0
2014-Oct-30 01:32N 36°55' E 025°06'1010.3
2014-Oct-30 00:33N 36°54' E 025°19'1010.3
2014-Oct-29 23:33N 36°54' E 025°32'10 9.7
2014-Oct-29 22:33N 36°49' E 025°42'8 3.6
2014-Oct-29 20:27N 36°50' E 025°52'0 0.0
2014-Oct-29 19:31N 36°50' E 025°52'0 0.0
2014-Oct-29 18:33N 36°50' E 025°52'0 0.0
2014-Oct-29 09:33N 36°50' E 025°52'6 6.0
2014-Oct-29 08:33N 36°54' E 025°57'1 1.5
2014-Oct-29 07:33N 36°54' E 025°59'0 0.0
2014-Oct-29 06:33N 36°54' E 025°59'0 0.0
2014-Oct-29 05:33N 36°54' E 025°59'0 0.0
2014-Oct-29 04:33N 36°54' E 025°59'0 0.0
2014-Oct-29 03:33N 36°54' E 025°59'0 0.0
2014-Oct-29 02:33N 36°54' E 025°59'0 0.0
2014-Oct-29 01:33N 36°54' E 025°59'0 0.0
2014-Oct-29 00:32N 36°54' E 025°59'2 2.0
2014-Oct-28 23:33N 36°56' E 025°57'8 8.3
2014-Oct-28 22:33N 36°54' E 026°07'9 9.3
2014-Oct-28 21:33N 36°50' E 026°18'9 9.1
2014-Oct-28 20:33N 36°47' E 026°29'32 1.1
2014-Oct-27 14:33N 37°18' E 026°38'  
2014-Oct-22 11:13N 36°37' E 026°43'26 9.5
2014-Oct-22 08:30N 36°42' E 026°11'910.0
2014-Oct-22 07:33N 36°44' E 025°59'1010.0
2014-Oct-22 06:33N 36°45' E 025°47'10 9.8
2014-Oct-22 05:33N 36°51' E 025°37'5 4.9
2014-Oct-22 04:33N 36°56' E 025°36'0 0.0
2014-Oct-22 03:33N 36°56' E 025°36'0 0.0
2014-Oct-22 02:33N 36°56' E 025°36'0 0.0
2014-Oct-22 01:33N 36°56' E 025°36'0 0.0
2014-Oct-22 00:33N 36°56' E 025°36'0 0.0
2014-Oct-21 23:33N 36°56' E 025°36'0 0.0
2014-Oct-21 22:33N 36°56' E 025°36'0 0.0
2014-Oct-21 21:33N 36°56' E 025°36'0 0.0
2014-Oct-21 20:33N 36°56' E 025°36'0 0.0
2014-Oct-21 19:33N 36°56' E 025°36'0 0.0
2014-Oct-21 18:33N 36°56' E 025°36'0 0.0
2014-Oct-21 17:33N 36°56' E 025°36'0 0.0
2014-Oct-21 16:33N 36°56' E 025°36'0 0.0
2014-Oct-21 15:33N 36°56' E 025°36'0 0.0
2014-Oct-21 14:33N 36°56' E 025°36'0 0.0
2014-Oct-21 13:33N 36°56' E 025°36'0 0.0
2014-Oct-21 12:33N 36°56' E 025°36'0 0.0
2014-Oct-21 11:33N 36°56' E 025°36'0 0.0
2014-Oct-21 10:33N 36°56' E 025°36'0 0.0
2014-Oct-21 09:33N 36°56' E 025°36'3 3.4
2014-Oct-21 08:33N 36°54' E 025°33'9 9.4
2014-Oct-21 07:33N 36°54' E 025°21'9 9.3
2014-Oct-21 06:33N 36°55' E 025°09'10 9.6
2014-Oct-21 05:33N 36°56' E 024°57'10 9.6
2014-Oct-21 04:33N 37°02' E 024°48'9 9.4
2014-Oct-21 03:33N 37°08' E 024°39'10 9.6
2014-Oct-21 02:33N 37°14' E 024°29'10 9.7
2014-Oct-21 01:33N 37°20' E 024°19'10 9.5
2014-Oct-21 00:31N 37°28' E 024°13'7 0.6
2014-Oct-20 13:33N 37°33' E 024°08'10 9.8
2014-Oct-20 12:33N 37°24' E 024°13'9 9.1
2014-Oct-20 11:33N 37°16' E 024°18'9 8.3
2014-Oct-20 10:31N 37°08' E 024°23'8 8.7
2014-Oct-20 09:33N 37°01' E 024°29'8 8.1
2014-Oct-20 08:33N 36°54' E 024°34'  

Dump ship's entire track history